K2HF Weather Reports


time (UTC)temp
F
wind
direction
speed
knots
gust
knots
rain 1hr
in
rain 24hr
in
rain mn
in
humidity
%
barometer
mb
20260504235816 54 189 1.7 7.0 0.00 0.00 0.00 17 1009.5
20260504235715 54 189 1.7 5.2 0.00 0.00 0.00 19 1009.5
20260504235701 54 189 1.7 5.2 0.00 0.00 0.00 19 1009.5
20260504235616 54 189 1.7 5.2 0.00 0.00 0.00 19 1009.5
20260504235516 55 189 1.7 7.8 0.00 0.00 0.00 19 1009.5
20260504235416 55 189 1.7 7.8 0.00 0.00 0.00 20 1009.5
20260504235315 55 189 1.7 7.8 0.00 0.00 0.00 22 1009.5
20260504235215 55 189 1.7 7.8 0.00 0.00 0.00 22 1009.5
20260504235203 55 189 2.6 7.8 0.00 0.00 0.00 25 1009.4
20260504235158 55 189 1.7 7.8 0.00 0.00 0.00 22 1009.5
20260504235117 55 189 1.7 7.8 0.00 0.00 0.00 23 1009.5
20260504235017 55 189 1.7 7.8 0.00 0.00 0.00 23 1009.5
20260504234913 55 189 2.6 7.8 0.00 0.00 0.00 23 1009.5
20260504234819 55 189 2.6 7.8 0.00 0.00 0.00 24 1009.5
20260504234803 55 189 2.6 7.8 0.00 0.00 0.00 25 1009.5
20260504234613 55 189 2.6 7.8 0.00 0.00 0.00 26 1009.4
20260504234513 55 188 2.6 7.0 0.00 0.00 0.00 26 1009.5
20260504234413 55 189 2.6 7.0 0.00 0.00 0.00 27 1009.5
20260504234313 55 189 1.7 7.0 0.00 0.00 0.00 28 1009.4
20260504234213 55 189 1.7 7.0 0.00 0.00 0.00 28 1009.4
20260504234159 55 189 1.7 7.0 0.00 0.00 0.00 29 1009.4
20260504234114 55 188 1.7 7.0 0.00 0.00 0.00 29 1009.4
20260504234015 55 188 1.7 7.0 0.00 0.00 0.00 30 1009.4
20260504233914 56 189 1.7 7.0 0.00 0.00 0.00 31 1009.4
20260504233815 56 189 1.7 7.0 0.00 0.00 0.00 32 1009.4
20260504233714 56 189 1.7 7.8 0.00 0.00 0.00 32 1009.5
20260504233658 56 189 1.7 7.8 0.00 0.00 0.00 33 1009.4
20260504233611 56 188 1.7 7.8 0.00 0.00 0.00 34 1009.4
20260504233512 56 189 1.7 7.8 0.00 0.00 0.00 34 1009.3
20260504233411 56 189 1.7 7.8 0.00 0.00 0.00 35 1009.4
20260504233312 56 189 2.6 7.8 0.00 0.00 0.00 37 1009.3
20260504233211 56 189 2.6 7.8 0.00 0.00 0.00 37 1009.3
20260504233200 56 189 2.6 7.8 0.00 0.00 0.00 37 1009.3
20260504233155 56 189 1.7 7.8 0.00 0.00 0.00 40 1009.2
20260504233112 56 189 2.6 7.8 0.00 0.00 0.00 37 1009.3
20260504233011 56 189 2.6 7.8 0.00 0.00 0.00 39 1009.3
20260504232912 56 189 2.6 7.8 0.00 0.00 0.00 39 1009.2
20260504232816 56 188 2.6 7.8 0.00 0.00 0.00 41 1009.3
20260504232802 56 189 1.7 7.8 0.00 0.00 0.00 40 1009.4
20260504232610 57 189 1.7 7.8 0.00 0.00 0.00 42 1009.2
20260504232510 57 189 1.7 7.8 0.00 0.00 0.00 42 1009.2
20260504232410 57 188 1.7 7.8 0.00 0.00 0.00 43 1009.2
20260504232310 57 188 1.7 7.8 0.00 0.00 0.00 44 1009.2
20260504232209 57 189 1.7 7.0 0.00 0.00 0.00 44 1009.3
20260504232155 57 188 1.7 7.0 0.00 0.00 0.00 44 1009.2
20260504232110 57 189 1.7 7.0 0.00 0.00 0.00 45 1009.2
20260504232011 57 188 1.7 7.0 0.00 0.00 0.00 45 1009.1
20260504231910 57 188 1.7 7.0 0.00 0.00 0.00 46 1009.2
20260504231811 57 188 1.7 7.0 0.00 0.00 0.00 47 1009.2
20260504231709 57 188 1.7 7.0 0.00 0.00 0.00 47 1009.1
20260504231654 57 188 1.7 7.0 0.00 0.00 0.00 47 1009.2
20260504231610 58 188 1.7 7.0 0.00 0.00 0.00 49 1009.2
20260504231511 58 188 1.7 6.1 0.00 0.00 0.00 49 1009.1
20260504231409 58 188 2.6 6.1 0.00 0.00 0.00 50 1009.2
20260504231311 58 189 1.7 6.1 0.00 0.00 0.00 50 1009.1
20260504231210 58 189 2.6 6.1 0.00 0.00 0.00 51 1009.2
20260504231159 58 188 2.6 6.1 0.00 0.00 0.00 54 1009.2
20260504231154 58 188 2.6 6.1 0.00 0.00 0.00 51 1009.2
20260504231110 58 188 2.6 6.1 0.00 0.00 0.00 51 1009.2
20260504231011 58 188 2.6 6.1 0.00 0.00 0.00 51 1009.2
20260504230911 58 188 2.6 6.1 0.00 0.00 0.00 52 1009.2
20260504230815 58 188 2.6 6.1 0.00 0.00 0.00 52 1009.3
20260504230801 58 188 2.6 6.1 0.00 0.00 0.00 54 1009.2
20260504230611 58 188 2.6 7.8 0.00 0.00 0.00 54 1009.2
20260504230510 58 188 2.6 7.8 0.00 0.00 0.00 54 1009.2
20260504230410 58 188 2.6 7.8 0.00 0.00 0.00 56 1009.2
20260504230311 58 188 2.6 7.8 0.00 0.00 0.00 56 1009.1
20260504230210 59 188 2.6 8.7 0.00 0.00 0.00 56 1009.1
20260504230154 59 188 2.6 8.7 0.00 0.00 0.00 57 1009.2
20260504230111 59 188 2.6 8.7 0.00 0.00 0.00 57 1009.2
20260504230010 59 188 3.5 8.7 0.00 0.00 0.00 58 1009.1
20260504225912 59 188 3.5 8.7 0.00 0.00 0.00 58 1009.2
20260504225810 59 188 2.6 8.7 0.00 0.00 0.00 58 1009.2
20260504225710 59 188 3.5 8.7 0.00 0.00 0.00 59 1009.3
20260504225655 59 188 3.5 8.7 0.00 0.00 0.00 59 1009.3
20260504225610 60 188 3.5 8.7 0.00 0.00 0.00 59 1009.3
20260504225509 60 188 2.6 8.7 0.00 0.00 0.00 60 1009.2
20260504225409 60 188 2.6 8.7 0.00 0.00 0.00 60 1009.2
20260504225310 60 188 2.6 8.7 0.00 0.00 0.00 61 1009.3
20260504225210 60 188 2.6 7.8 0.00 0.00 0.00 61 1009.2
20260504225155 60 188 2.6 7.8 0.00 0.00 0.00 61 1009.2
20260504225110 60 188 2.6 7.8 0.00 0.00 0.00 61 1009.2
20260504225010 60 188 2.6 7.8 0.00 0.00 0.00 61 1009.3
20260504224912 61 188 2.6 7.8 0.00 0.00 0.00 61 1009.3
20260504224810 61 188 2.6 7.0 0.00 0.00 0.00 61 1009.3
20260504224710 61 188 2.6 7.0 0.00 0.00 0.00 61 1009.2
20260504224658 61 188 2.6 8.7 0.00 0.00 0.00 61 1009.3
20260504224654 61 188 2.6 7.0 0.00 0.00 0.00 61 1009.2
20260504224610 61 188 2.6 7.0 0.00 0.00 0.00 61 1009.2
20260504224509 61 188 2.6 7.0 0.00 0.00 0.00 61 1009.2
20260504224410 61 188 2.6 7.0 0.00 0.00 0.00 61 1009.4
20260504224315 61 188 2.6 7.0 0.00 0.00 0.00 61 1009.3
20260504224301 61 188 2.6 8.7 0.00 0.00 0.00 61 1009.3
20260504224111 61 188 2.6 8.7 0.00 0.00 0.00 61 1009.3
20260504224010 61 188 2.6 8.7 0.00 0.00 0.00 61 1009.2
20260504223909 61 188 2.6 8.7 0.00 0.00 0.00 61 1009.1
20260504223809 61 188 2.6 8.7 0.00 0.00 0.00 61 1009.3
20260504223710 62 188 2.6 8.7 0.00 0.00 0.00 61 1009.3
20260504223659 62 188 1.7 7.0 0.00 0.00 0.00 61 1009.3
20260504223653 61 188 2.6 8.7 0.00 0.00 0.00 61 1009.3
20260504223611 62 188 2.6 8.7 0.00 0.00 0.00 61 1009.3
20260504223510 62 188 2.6 8.7 0.00 0.00 0.00 61 1009.3
20260504223410 62 188 2.6 8.7 0.00 0.00 0.00 61 1009.4
20260504223316 62 188 2.6 8.7 0.00 0.00 0.00 61 1009.4
20260504223301 62 188 1.7 7.0 0.00 0.00 0.00 61 1009.4
20260504223110 62 188 1.7 7.0 0.00 0.00 0.00 61 1009.3
20260504223009 62 188 1.7 6.1 0.00 0.00 0.00 61 1009.3
20260504222910 62 188 1.7 6.1 0.00 0.00 0.00 61 1009.3
20260504222809 62 188 1.7 6.1 0.00 0.00 0.00 61 1009.3
20260504222710 62 188 1.7 7.8 0.00 0.00 0.00 60 1009.3
20260504222654 62 188 1.7 7.8 0.00 0.00 0.00 60 1009.4
20260504222609 62 188 1.7 7.8 0.00 0.00 0.00 60 1009.4
20260504222510 62 188 1.7 7.8 0.00 0.00 0.00 60 1009.4
20260504222409 62 188 1.7 7.8 0.00 0.00 0.00 60 1009.6
20260504222309 62 188 1.7 7.8 0.00 0.00 0.00 60 1009.4
20260504222209 62 188 1.7 7.8 0.00 0.00 0.00 60 1009.3
20260504222155 62 188 1.7 7.8 0.00 0.00 0.00 60 1009.3
20260504222109 62 188 1.7 7.8 0.00 0.00 0.00 60 1009.3
20260504222011 62 188 1.7 7.8 0.00 0.00 0.00 60 1009.3
20260504221910 62 188 1.7 7.8 0.00 0.00 0.00 60 1009.3
20260504221810 62 188 1.7 7.8 0.00 0.00 0.00 60 1009.3
20260504221710 62 188 1.7 11.3 0.00 0.00 0.00 61 1009.4
20260504221654 62 188 2.6 11.3 0.00 0.00 0.00 61 1009.4
20260504221609 62 188 2.6 11.3 0.00 0.00 0.00 60 1009.4
20260504221511 62 188 2.6 11.3 0.00 0.00 0.00 60 1009.4
20260504221409 62 188 2.6 11.3 0.00 0.00 0.00 60 1009.4
20260504221311 62 188 2.6 11.3 0.00 0.00 0.00 60 1009.5
20260504221210 62 188 2.6 11.3 0.00 0.00 0.00 60 1009.5
20260504221155 62 188 2.6 11.3 0.00 0.00 0.00 60 1009.4
20260504221110 62 188 2.6 11.3 0.00 0.00 0.00 60 1009.4
20260504221010 62 188 2.6 11.3 0.00 0.00 0.00 60 1009.4
20260504220909 62 188 2.6 11.3 0.00 0.00 0.00 59 1009.4
20260504220810 62 188 2.6 11.3 0.00 0.00 0.00 59 1009.4
20260504220710 62 188 2.6 11.3 0.00 0.00 0.00 59 1009.4
20260504220654 62 188 2.6 11.3 0.00 0.00 0.00 59 1009.4
20260504220611 62 188 2.6 11.3 0.00 0.00 0.00 59 1009.4
20260504220509 62 188 2.6 11.3 0.00 0.00 0.00 59 1009.5
20260504220409 62 187 2.6 11.3 0.00 0.00 0.00 59 1009.5
20260504220310 62 188 2.6 11.3 0.00 0.00 0.00 59 1009.5
20260504220209 62 188 2.6 11.3 0.00 0.00 0.00 58 1009.6
20260504220154 62 187 2.6 11.3 0.00 0.00 0.00 58 1009.5
20260504220109 62 187 2.6 11.3 0.00 0.00 0.00 57 1009.5
20260504220010 62 188 2.6 11.3 0.00 0.00 0.00 57 1009.5
20260504215910 63 188 2.6 11.3 0.00 0.00 0.00 57 1009.5
20260504215809 63 188 2.6 11.3 0.00 0.00 0.00 57 1009.6
20260504215709 63 188 2.6 9.6 0.00 0.00 0.00 57 1009.4
20260504215659 63 188 2.6 9.6 0.00 0.00 0.00 56 1009.5
20260504215655 63 188 2.6 9.6 0.00 0.00 0.00 57 1009.4
20260504215610 63 188 2.6 9.6 0.00 0.00 0.00 57 1009.4
20260504215510 63 188 2.6 9.6 0.00 0.00 0.00 57 1009.5
20260504215411 63 188 2.6 9.6 0.00 0.00 0.00 57 1009.5
20260504215315 63 188 2.6 9.6 0.00 0.00 0.00 57 1009.5
20260504215300 63 188 2.6 9.6 0.00 0.00 0.00 56 1009.6
20260504215110 64 188 2.6 10.4 0.00 0.00 0.00 56 1009.5
20260504215009 64 188 2.6 10.4 0.00 0.00 0.00 56 1009.4
20260504214911 64 188 2.6 10.4 0.00 0.00 0.00 56 1009.4
20260504214809 64 188 1.7 10.4 0.00 0.00 0.00 55 1009.5
20260504214710 64 188 1.7 10.4 0.00 0.00 0.00 55 1009.6
20260504214655 64 188 1.7 10.4 0.00 0.00 0.00 55 1009.6
20260504214610 64 188 1.7 10.4 0.00 0.00 0.00 55 1009.6
20260504214509 64 188 1.7 10.4 0.00 0.00 0.00 55 1009.7
20260504214409 64 189 1.7 10.4 0.00 0.00 0.00 55 1009.6
20260504214309 64 189 2.6 10.4 0.00 0.00 0.00 55 1009.5
20260504214209 64 189 1.7 10.4 0.00 0.00 0.00 54 1009.5
20260504214153 64 189 1.7 10.4 0.00 0.00 0.00 54 1009.6
20260504214111 64 189 1.7 7.8 0.00 0.00 0.00 54 1009.6
20260504214010 64 190 1.7 7.8 0.00 0.00 0.00 54 1009.6
20260504213911 64 190 1.7 7.8 0.00 0.00 0.00 54 1009.5
20260504213810 64 190 2.6 7.8 0.00 0.00 0.00 54 1009.6
20260504213711 64 190 2.6 7.8 0.00 0.00 0.00 55 1009.5
20260504213654 64 190 2.6 7.8 0.00 0.00 0.00 55 1009.5
20260504213610 64 190 2.6 7.8 0.00 0.00 0.00 55 1009.5
20260504213509 64 190 2.6 7.8 0.00 0.00 0.00 55 1009.6
20260504213410 64 190 2.6 7.8 0.00 0.00 0.00 55 1009.5
20260504213310 65 190 2.6 7.8 0.00 0.00 0.00 54 1009.5
20260504213209 65 190 2.6 8.7 0.00 0.00 0.00 54 1009.6
20260504213155 65 190 2.6 8.7 0.00 0.00 0.00 54 1009.7
20260504213109 65 190 2.6 8.7 0.00 0.00 0.00 53 1009.7
20260504213011 65 190 2.6 8.7 0.00 0.00 0.00 54 1009.6
20260504212909 65 190 2.6 8.7 0.00 0.00 0.00 53 1009.6
20260504212809 65 190 2.6 8.7 0.00 0.00 0.00 53 1009.6
20260504212711 65 190 1.7 8.7 0.00 0.00 0.00 52 1009.6
20260504212653 65 190 1.7 8.7 0.00 0.00 0.00 52 1009.6
20260504212610 65 190 1.7 8.7 0.00 0.00 0.00 53 1009.6
20260504212509 65 190 1.7 8.7 0.00 0.00 0.00 53 1009.6
20260504212409 65 190 1.7 8.7 0.00 0.00 0.00 53 1009.6
20260504212310 65 190 1.7 8.7 0.00 0.00 0.00 53 1009.6
20260504212209 65 190 1.7 7.8 0.00 0.00 0.00 54 1009.6
20260504212154 65 190 1.7 7.8 0.00 0.00 0.00 54 1009.6
20260504212111 65 190 1.7 7.8 0.00 0.00 0.00 54 1009.6
20260504212009 65 190 1.7 7.8 0.00 0.00 0.00 54 1009.7
20260504211910 65 190 1.7 8.7 0.00 0.00 0.00 54 1009.6
20260504211809 65 190 1.7 8.7 0.00 0.00 0.00 54 1009.7
20260504211711 65 190 1.7 8.7 0.00 0.00 0.00 54 1009.6
20260504211655 65 190 1.7 8.7 0.00 0.00 0.00 54 1009.7
20260504211610 65 190 1.7 8.7 0.00 0.00 0.00 54 1009.7
20260504211510 65 190 2.6 8.7 0.00 0.00 0.00 53 1009.6
20260504211409 64 190 2.6 8.7 0.00 0.00 0.00 53 1009.6
20260504211311 65 190 2.6 8.7 0.00 0.00 0.00 52 1009.5
20260504211209 65 190 2.6 8.7 0.00 0.00 0.00 52 1009.5
20260504211155 65 190 2.6 8.7 0.00 0.00 0.00 52 1009.5
20260504211110 64 190 2.6 8.7 0.00 0.00 0.00 53 1009.5
20260504211010 64 191 2.6 8.7 0.00 0.00 0.00 52 1009.6
20260504210910 64 190 2.6 8.7 0.00 0.00 0.00 52 1009.7
20260504210809 65 190 2.6 8.7 0.00 0.00 0.00 52 1009.6
20260504210710 65 190 2.6 8.7 0.00 0.00 0.00 52 1009.6
20260504210654 65 190 2.6 8.7 0.00 0.00 0.00 52 1009.7
20260504210609 65 190 2.6 8.7 0.00 0.00 0.00 52 1009.7
20260504210510 65 191 2.6 8.7 0.00 0.00 0.00 52 1009.6
20260504210409 65 190 2.6 8.7 0.00 0.00 0.00 51 1009.6
20260504210309 65 190 2.6 8.7 0.00 0.00 0.00 51 1009.6
20260504210210 65 191 2.6 8.7 0.00 0.00 0.00 51 1009.6
20260504210154 65 190 2.6 8.7 0.00 0.00 0.00 51 1009.6
20260504210111 65 190 2.6 8.7 0.00 0.00 0.00 51 1009.5
20260504210009 65 190 2.6 8.7 0.00 0.00 0.00 51 1009.5
20260504205911 65 190 2.6 8.7 0.00 0.00 0.00 51 1009.6
20260504205809 65 190 2.6 8.7 0.00 0.00 0.00 52 1009.7
20260504205710 65 190 2.6 8.7 0.00 0.00 0.00 51 1009.6
20260504205654 65 190 2.6 8.7 0.00 0.00 0.00 51 1009.6
20260504205610 65 190 2.6 8.7 0.00 0.00 0.00 51 1009.6
20260504205511 65 190 2.6 8.7 0.00 0.00 0.00 51 1009.6
20260504205410 65 190 2.6 8.7 0.00 0.00 0.00 52 1009.8
20260504205311 65 190 2.6 8.7 0.00 0.00 0.00 51 1009.5
20260504205209 65 190 2.6 8.7 0.00 0.00 0.00 50 1009.5
20260504205154 65 190 2.6 8.7 0.00 0.00 0.00 50 1009.6
20260504205111 65 189 2.6 8.7 0.00 0.00 0.00 51 1009.6
20260504205010 65 190 2.6 8.7 0.00 0.00 0.00 51 1009.6
20260504204909 65 190 2.6 8.7 0.00 0.00 0.00 50 1009.7
20260504204810 65 190 2.6 8.7 0.00 0.00 0.00 51 1009.7
20260504204711 65 190 2.6 7.0 0.00 0.00 0.00 51 1009.8
20260504204654 65 190 2.6 7.8 0.00 0.00 0.00 51 1009.7
20260504204610 65 189 2.6 7.8 0.00 0.00 0.00 51 1009.7
20260504204511 65 189 1.7 7.8 0.00 0.00 0.00 50 1009.7
20260504204410 65 190 1.7 7.8 0.00 0.00 0.00 50 1009.7
20260504204310 65 190 1.7 7.8 0.00 0.00 0.00 50 1009.6
20260504204209 65 190 1.7 7.8 0.00 0.00 0.00 50 1009.4
20260504204154 65 190 1.7 7.8 0.00 0.00 0.00 50 1009.6
20260504204110 65 190 1.7 7.8 0.00 0.00 0.00 50 1009.6
20260504204009 65 190 2.6 7.8 0.00 0.00 0.00 50 1009.6
20260504203909 65 190 2.6 7.8 0.00 0.00 0.00 50 1009.6
20260504203809 65 190 2.6 7.8 0.00 0.00 0.00 50 1009.6
20260504203711 65 190 2.6 7.8 0.00 0.00 0.00 50 1009.6
20260504203653 65 190 2.6 7.0 0.00 0.00 0.00 50 1009.6
20260504203610 65 190 2.6 7.0 0.00 0.00 0.00 50 1009.6
20260504203510 65 190 2.6 11.3 0.00 0.00 0.00 50 1009.8
20260504203411 65 190 2.6 11.3 0.00 0.00 0.00 50 1009.6
20260504203310 65 190 3.5 11.3 0.00 0.00 0.00 49 1009.6
20260504203209 66 190 2.6 11.3 0.00 0.00 0.00 49 1009.6
20260504203154 66 190 2.6 11.3 0.00 0.00 0.00 49 1009.7
20260504203111 66 190 2.6 11.3 0.00 0.00 0.00 49 1009.7
20260504203010 66 190 2.6 11.3 0.00 0.00 0.00 49 1009.6
20260504202910 66 190 2.6 11.3 0.00 0.00 0.00 49 1009.7
20260504202810 66 190 2.6 11.3 0.00 0.00 0.00 48 1009.7
20260504202711 66 190 2.6 11.3 0.00 0.00 0.00 48 1009.7
20260504202654 66 190 1.7 11.3 0.00 0.00 0.00 48 1009.5
20260504202610 67 190 1.7 11.3 0.00 0.00 0.00 49 1009.5
20260504202511 67 190 1.7 8.7 0.00 0.00 0.00 49 1009.5
20260504202410 67 190 1.7 8.7 0.00 0.00 0.00 49 1009.5
20260504202311 67 190 1.7 6.1 0.00 0.00 0.00 50 1009.4
20260504202211 67 190 1.7 6.1 0.00 0.00 0.00 48 1009.4
20260504202153 67 190 1.7 6.1 0.00 0.00 0.00 48 1009.6
20260504202110 67 190 1.7 6.1 0.00 0.00 0.00 48 1009.6
20260504202009 67 190 1.7 9.6 0.00 0.00 0.00 48 1009.5
20260504201910 67 189 1.7 9.6 0.00 0.00 0.00 49 1009.6
20260504201809 67 190 1.7 9.6 0.00 0.00 0.00 49 1009.5
20260504201711 67 190 1.7 9.6 0.00 0.00 0.00 49 1009.7
20260504201653 67 190 1.7 9.6 0.00 0.00 0.00 48 1009.7
20260504201610 67 190 1.7 9.6 0.00 0.00 0.00 48 1009.7
20260504201511 67 190 1.7 9.6 0.00 0.00 0.00 48 1009.6
20260504201411 67 190 1.7 10.4 0.00 0.00 0.00 48 1009.6
20260504201311 67 190 2.6 10.4 0.00 0.00 0.00 47 1009.9
20260504201211 67 190 2.6 10.4 0.00 0.00 0.00 47 1009.8
20260504201153 67 190 2.6 10.4 0.00 0.00 0.00 47 1009.6
20260504201112 67 190 2.6 10.4 0.00 0.00 0.00 47 1009.6
20260504201010 67 190 2.6 10.4 0.00 0.00 0.00 47 1009.6
20260504200911 67 190 2.6 10.4 0.00 0.00 0.00 47 1009.8
20260504200810 67 190 2.6 10.4 0.00 0.00 0.00 46 1009.8
20260504200711 67 190 2.6 10.4 0.00 0.00 0.00 46 1009.8
20260504200654 67 190 2.6 10.4 0.00 0.00 0.00 45 1009.6
20260504200611 67 190 2.6 10.4 0.00 0.00 0.00 45 1009.6
20260504200511 68 190 2.6 10.4 0.00 0.00 0.00 45 1009.6
20260504200409 68 190 1.7 7.8 0.00 0.00 0.00 45 1009.8
20260504200311 68 190 2.6 7.8 0.00 0.00 0.00 45 1009.6
20260504200209 68 190 1.7 7.8 0.00 0.00 0.00 45 1009.8
20260504200155 68 190 1.7 7.8 0.00 0.00 0.00 45 1009.7
20260504200111 68 190 1.7 7.8 0.00 0.00 0.00 45 1009.7
20260504200011 68 190 1.7 7.8 0.00 0.00 0.00 45 1009.8
20260504195909 68 190 1.7 6.1 0.00 0.00 0.00 45 1009.7
20260504195810 68 190 1.7 6.1 0.00 0.00 0.00 47 1009.8
20260504195709 68 190 1.7 6.1 0.00 0.00 0.00 47 1009.8
20260504195655 68 190 1.7 6.1 0.00 0.00 0.00 47 1009.8
20260504195609 68 190 1.7 4.3 0.00 0.00 0.00 45 1009.8
20260504195510 68 190 1.7 4.3 0.00 0.00 0.00 45 1009.8
20260504195410 68 190 1.7 7.8 0.00 0.00 0.00 45 1009.8
20260504195311 68 190 1.7 7.8 0.00 0.00 0.00 45 1009.8
20260504195211 69 190 1.7 7.8 0.00 0.00 0.00 45 1009.7
20260504195154 69 190 1.7 7.8 0.00 0.00 0.00 45 1009.7
20260504195111 69 190 1.7 7.8 0.00 0.00 0.00 45 1009.7
20260504195010 68 190 1.7 7.8 0.00 0.00 0.00 46 1009.8
20260504194911 68 190 1.7 7.8 0.00 0.00 0.00 47 1009.7
20260504194810 68 190 1.7 7.8 0.00 0.00 0.00 47 1009.8
20260504194711 68 190 1.7 7.8 0.00 0.00 0.00 45 1009.8
20260504194654 68 190 1.7 7.8 0.00 0.00 0.00 45 1009.7
20260504194610 68 189 1.7 7.8 0.00 0.00 0.00 45 1009.7
20260504194511 68 190 1.7 7.8 0.00 0.00 0.00 44 1009.8
20260504194410 68 190 1.7 6.1 0.00 0.00 0.00 44 1009.7
20260504194310 68 190 1.7 6.1 0.00 0.00 0.00 44 1009.7
20260504194209 68 190 1.7 6.1 0.00 0.00 0.00 44 1009.9
20260504194154 68 189 1.7 6.1 0.00 0.00 0.00 44 1009.8
20260504194111 68 190 1.7 6.1 0.00 0.00 0.00 45 1009.8
20260504194011 68 189 1.7 6.1 0.00 0.00 0.00 45 1009.8
20260504193911 68 190 1.7 6.1 0.00 0.00 0.00 45 1009.9
20260504193809 68 190 1.7 6.1 0.00 0.00 0.00 45 1009.8
20260504193710 68 190 1.7 6.1 0.00 0.00 0.00 45 1009.8
20260504193654 68 190 1.7 6.1 0.00 0.00 0.00 45 1009.8
20260504193610 68 190 1.7 6.1 0.00 0.00 0.00 45 1009.8
20260504193511 68 190 1.7 6.1 0.00 0.00 0.00 45 1009.7
20260504193411 68 190 1.7 6.1 0.00 0.00 0.00 45 1009.8
20260504193311 68 190 1.7 6.1 0.00 0.00 0.00 46 1009.8
20260504193210 68 190 1.7 6.1 0.00 0.00 0.00 46 1009.8
20260504193151 68 190 1.7 6.1 0.00 0.00 0.00 45 1009.8
20260504193111 68 190 1.7 6.1 0.00 0.00 0.00 45 1009.8
20260504193010 68 190 1.7 7.8 0.00 0.00 0.00 45 1009.8
20260504192910 68 190 1.7 7.8 0.00 0.00 0.00 45 1009.7
20260504192811 68 190 1.7 7.8 0.00 0.00 0.00 45 1009.8
20260504192711 69 190 1.7 7.8 0.00 0.00 0.00 45 1009.8
20260504192651 69 190 1.7 7.8 0.00 0.00 0.00 45 1009.7
20260504192610 69 190 1.7 7.8 0.00 0.00 0.00 45 1009.7
20260504192510 69 190 1.7 7.8 0.00 0.00 0.00 45 1009.8
20260504192411 69 190 1.7 7.8 0.00 0.00 0.00 46 1009.8
20260504192310 69 190 1.7 7.8 0.00 0.00 0.00 45 1009.9
20260504192210 69 190 1.7 7.8 0.00 0.00 0.00 45 1009.8
20260504192152 69 190 1.7 7.8 0.00 0.00 0.00 45 1009.9
20260504192111 69 190 1.7 7.8 0.00 0.00 0.00 45 1009.9
20260504192011 69 190 1.7 7.0 0.00 0.00 0.00 45 1010.0
20260504191910 69 190 1.7 7.0 0.00 0.00 0.00 45 1010.0
20260504191809 69 189 1.7 7.0 0.00 0.00 0.00 45 1010.0
20260504191711 69 190 1.7 7.0 0.00 0.00 0.00 42 1010.0
20260504191652 69 189 2.6 7.0 0.00 0.00 0.00 42 1009.9
20260504191611 69 189 2.6 7.0 0.00 0.00 0.00 42 1009.9
20260504191510 69 189 2.6 7.8 0.00 0.00 0.00 42 1010.0
20260504191409 69 189 2.6 7.8 0.00 0.00 0.00 42 1010.0
20260504191310 69 190 2.6 7.8 0.00 0.00 0.00 42 1009.9
20260504191211 69 190 2.6 7.8 0.00 0.00 0.00 42 1009.9
20260504191151 69 189 1.7 7.8 0.00 0.00 0.00 42 1009.9
20260504191110 69 190 1.7 7.8 0.00 0.00 0.00 42 1009.9
20260504191011 69 190 1.7 7.8 0.00 0.00 0.00 42 1009.9
20260504190911 69 189 1.7 7.8 0.00 0.00 0.00 43 1009.9
20260504190809 69 189 1.7 7.8 0.00 0.00 0.00 43 1009.9
20260504190711 70 189 1.7 7.8 0.00 0.00 0.00 43 1009.9
20260504190651 70 190 1.7 7.8 0.00 0.00 0.00 43 1009.9
20260504190609 70 190 1.7 7.8 0.00 0.00 0.00 42 1009.9
20260504190509 70 190 1.7 7.8 0.00 0.00 0.00 43 1009.9
20260504190408 70 190 1.7 7.8 0.00 0.00 0.00 43 1009.9
20260504190307 69 190 1.7 7.8 0.00 0.00 0.00 43 1009.8
20260504190208 69 190 1.7 7.8 0.00 0.00 0.00 44 1009.9
20260504190151 69 190 2.6 7.8 0.00 0.00 0.00 44 1009.9
20260504190108 69 190 2.6 7.8 0.00 0.00 0.00 45 1010.0
20260504190008 69 190 2.6 7.8 0.00 0.00 0.00 43 1010.0
20260504185907 69 190 2.6 7.8 0.00 0.00 0.00 43 1010.0
20260504185807 69 189 2.6 7.8 0.00 0.00 0.00 43 1010.0
20260504185708 69 189 1.7 7.8 0.00 0.00 0.00 43 1010.0
20260504185657 69 190 1.7 5.2 0.00 0.00 0.00 42 1010.1
20260504185651 69 190 1.7 7.8 0.00 0.00 0.00 43 1010.0
20260504185605 69 190 1.7 7.8 0.00 0.00 0.00 43 1010.0
20260504185504 69 190 1.7 7.8 0.00 0.00 0.00 42 1010.1
20260504185404 69 189 1.7 7.8 0.00 0.00 0.00 42 1010.1
20260504185313 69 190 1.7 7.8 0.00 0.00 0.00 42 1010.0
20260504185258 69 189 1.7 5.2 0.00 0.00 0.00 42 1010.1
20260504185101 69 190 1.7 7.0 0.00 0.00 0.00 45 1010.1
20260504185000 69 189 1.7 7.0 0.00 0.00 0.00 45 1010.1
20260504184901 69 190 1.7 7.0 0.00 0.00 0.00 45 1010.0
20260504184801 69 189 1.7 7.0 0.00 0.00 0.00 47 1010.1
20260504184701 69 190 1.7 7.0 0.00 0.00 0.00 47 1010.1
20260504184649 69 189 1.7 7.0 0.00 0.00 0.00 47 1010.1
20260504184600 69 190 1.7 7.0 0.00 0.00 0.00 46 1010.3
20260504184500 69 189 1.7 7.0 0.00 0.00 0.00 44 1010.1
20260504184359 69 190 1.7 7.0 0.00 0.00 0.00 44 1010.1
20260504184259 69 190 1.7 7.0 0.00 0.00 0.00 47 1010.3
20260504184159 69 190 1.7 7.0 0.00 0.00 0.00 47 1010.3
20260504184153 69 190 1.7 7.0 0.00 0.00 0.00 45 1010.4
20260504184148 69 189 1.7 7.0 0.00 0.00 0.00 47 1010.3
20260504184059 68 189 1.7 6.1 0.00 0.00 0.00 46 1010.3
20260504183959 68 190 1.7 6.1 0.00 0.00 0.00 47 1010.3
20260504183859 68 189 1.7 6.1 0.00 0.00 0.00 46 1010.4
20260504183806 68 190 1.7 6.1 0.00 0.00 0.00 43 1010.4
20260504183752 69 190 1.7 7.0 0.00 0.00 0.00 45 1010.4
20260504183556 69 190 1.7 7.0 0.00 0.00 0.00 46 1010.4
20260504183456 69 190 1.7 7.0 0.00 0.00 0.00 47 1010.4
20260504183355 69 190 1.7 7.0 0.00 0.00 0.00 47 1010.4
20260504183252 69 189 0.9 7.0 0.00 0.00 0.00 44 1010.4
20260504183148 69 190 1.7 7.0 0.00 0.00 0.00 44 1010.4
20260504183052 69 190 1.7 7.0 0.00 0.00 0.00 44 1010.3
20260504182952 69 189 0.9 7.0 0.00 0.00 0.00 44 1010.4
20260504182851 69 190 1.7 7.0 0.00 0.00 0.00 44 1010.3
20260504182751 69 190 0.9 7.0 0.00 0.00 0.00 47 1010.3
20260504182648 69 190 1.7 7.8 0.00 0.00 0.00 45 1010.4
20260504182551 69 189 1.7 7.8 0.00 0.00 0.00 45 1010.4
20260504182451 69 190 1.7 7.8 0.00 0.00 0.00 47 1010.4
20260504182353 69 189 1.7 7.8 0.00 0.00 0.00 47 1010.4
20260504182252 69 190 1.7 7.8 0.00 0.00 0.00 45 1010.4
20260504182145 69 190 1.7 7.8 0.00 0.00 0.00 47 1010.4
20260504182049 69 189 1.7 7.8 0.00 0.00 0.00 48 1010.4
20260504181949 68 190 1.7 7.8 0.00 0.00 0.00 48 1010.4
20260504181848 69 189 1.7 7.8 0.00 0.00 0.00 45 1010.5
20260504181749 69 189 1.7 7.8 0.00 0.00 0.00 45 1010.6
20260504181646 69 189 0.9 5.2 0.00 0.00 0.00 47 1010.6
20260504181548 69 189 1.7 4.3 0.00 0.00 0.00 45 1010.5
20260504181448 69 189 0.9 6.1 0.00 0.00 0.00 45 1010.5
20260504181349 69 190 1.7 6.1 0.00 0.00 0.00 46 1010.6
20260504181248 69 190 0.9 7.8 0.00 0.00 0.00 46 1010.5
20260504181148 69 189 0.9 7.8 0.00 0.00 0.00 46 1010.5
20260504181145 69 190 0.9 7.8 0.00 0.00 0.00 46 1010.5
20260504181047 69 190 1.7 7.8 0.00 0.00 0.00 46 1010.5
20260504180947 69 189 1.7 7.8 0.00 0.00 0.00 46 1010.5
20260504180847 69 190 0.9 7.8 0.00 0.00 0.00 46 1010.5
20260504180749 69 189 1.7 7.8 0.00 0.00 0.00 46 1010.6
20260504180640 69 189 1.7 7.8 0.00 0.00 0.00 46 1010.5
20260504180541 69 190 1.7 7.8 0.00 0.00 0.00 44 1010.5
20260504180443 69 190 1.7 7.8 0.00 0.00 0.00 45 1010.4
20260504180340 69 189 1.7 7.8 0.00 0.00 0.00 45 1010.5
20260504180240 69 190 1.7 7.8 0.00 0.00 0.00 46 1010.5
20260504180151 68 190 1.7 7.8 0.00 0.00 0.00 44 1010.6
20260504180140 68 190 1.7 7.8 0.00 0.00 0.00 45 1010.5
20260504180039 68 190 1.7 7.8 0.00 0.00 0.00 45 1010.6
20260504175939 68 190 1.7 7.8 0.00 0.00 0.00 45 1010.5
20260504175840 68 189 1.7 7.8 0.00 0.00 0.00 44 1010.6
20260504175800 69 190 1.7 7.8 0.00 0.00 0.00 44 1010.6
20260504175745 68 190 1.7 7.8 0.00 0.00 0.00 44 1010.6
20260504175540 68 189 1.7 7.8 0.00 0.00 0.00 44 1010.7
20260504175441 68 189 1.7 7.8 0.00 0.00 0.00 44 1010.6
20260504175336 68 190 1.7 9.6 0.00 0.00 0.00 45 1010.6
20260504175236 68 190 2.6 9.6 0.00 0.00 0.00 44 1010.7
20260504175144 68 190 1.7 9.6 0.00 0.00 0.00 44 1010.7
20260504175135 68 189 2.6 9.6 0.00 0.00 0.00 45 1010.7
20260504175032 68 190 1.7 9.6 0.00 0.00 0.00 45 1010.7
20260504174932 68 189 1.7 9.6 0.00 0.00 0.00 44 1010.7
20260504174830 68 189 2.6 9.6 0.00 0.00 0.00 44 1010.6
20260504174747 68 189 2.6 9.6 0.00 0.00 0.00 44 1010.7
20260504174628 68 190 1.7 9.6 0.00 0.00 0.00 44 1010.7
20260504174528 68 190 2.6 9.6 0.00 0.00 0.00 44 1010.7
20260504174428 68 189 1.7 9.6 0.00 0.00 0.00 43 1010.7
20260504174327 68 189 1.7 7.8 0.00 0.00 0.00 43 1010.7
20260504174227 68 189 1.7 7.8 0.00 0.00 0.00 46 1010.6
20260504174124 68 190 1.7 7.8 0.00 0.00 0.00 44 1010.7
20260504174024 68 189 1.7 7.8 0.00 0.00 0.00 44 1010.8
20260504173925 67 190 1.7 7.8 0.00 0.00 0.00 44 1010.7
20260504173825 67 190 1.7 7.8 0.00 0.00 0.00 45 1010.8
20260504173724 67 190 1.7 7.8 0.00 0.00 0.00 45 1010.8
20260504173624 67 189 1.7 7.8 0.00 0.00 0.00 45 1010.8
20260504173524 67 189 1.7 7.0 0.00 0.00 0.00 44 1010.8
20260504173424 67 190 1.7 7.0 0.00 0.00 0.00 44 1010.8
20260504173321 67 189 1.7 5.2 0.00 0.00 0.00 46 1010.7
20260504173218 67 189 1.7 5.2 0.00 0.00 0.00 45 1010.7
20260504173133 67 189 1.7 5.2 0.00 0.00 0.00 45 1010.7
20260504173115 67 190 1.7 5.2 0.00 0.00 0.00 43 1010.7
20260504173014 66 189 1.7 5.2 0.00 0.00 0.00 43 1010.8
20260504172911 66 189 2.6 5.2 0.00 0.00 0.00 44 1010.8
20260504172811 66 189 2.6 5.2 0.00 0.00 0.00 45 1010.9
20260504172712 66 189 2.6 5.2 0.00 0.00 0.00 45 1010.8
20260504172631 66 189 2.6 5.2 0.00 0.00 0.00 45 1010.8
20260504172613 66 189 2.6 5.2 0.00 0.00 0.00 44 1010.8
20260504172511 66 190 2.6 5.2 0.00 0.00 0.00 44 1010.8
20260504172411 66 189 2.6 5.2 0.00 0.00 0.00 44 1010.7
20260504172311 66 189 2.6 5.2 0.00 0.00 0.00 43 1010.7
20260504172212 66 189 2.6 5.2 0.00 0.00 0.00 43 1010.8
20260504172129 66 190 2.6 5.2 0.00 0.00 0.00 42 1010.8
20260504172113 66 189 2.6 5.2 0.00 0.00 0.00 42 1010.8
20260504172013 66 190 2.6 6.1 0.00 0.00 0.00 41 1010.8
20260504171911 67 189 2.6 6.1 0.00 0.00 0.00 40 1010.8
20260504171812 67 190 2.6 6.1 0.00 0.00 0.00 40 1010.8
20260504171710 67 189 2.6 8.7 0.00 0.00 0.00 39 1010.8
20260504171628 67 189 2.6 8.7 0.00 0.00 0.00 39 1010.9
20260504171609 67 189 2.6 8.7 0.00 0.00 0.00 39 1010.8
20260504171508 67 190 3.5 13.9 0.00 0.00 0.00 40 1010.9
20260504171405 67 189 3.5 13.9 0.00 0.00 0.00 40 1010.8
20260504171305 67 189 3.5 13.9 0.00 0.00 0.00 40 1010.9
20260504171203 67 189 3.5 13.9 0.00 0.00 0.00 41 1011.0
20260504171127 67 189 3.5 13.9 0.00 0.00 0.00 40 1011.0
20260504171103 67 189 2.6 13.9 0.00 0.00 0.00 40 1010.8
20260504171003 67 189 3.5 13.9 0.00 0.00 0.00 40 1010.9
20260504170904 67 189 3.5 13.9 0.00 0.00 0.00 38 1010.9
20260504170805 67 189 2.6 13.9 0.00 0.00 0.00 37 1010.8
20260504170705 67 189 2.6 13.9 0.00 0.00 0.00 37 1010.9
20260504170604 67 189 2.6 13.9 0.00 0.00 0.00 38 1010.9
20260504170503 67 189 2.6 7.8 0.00 0.00 0.00 40 1010.9
20260504170403 67 190 2.6 7.8 0.00 0.00 0.00 40 1010.9
20260504170304 67 189 2.6 7.8 0.00 0.00 0.00 40 1010.9
20260504170204 67 189 2.6 7.8 0.00 0.00 0.00 39 1010.9
20260504160433 65 189 4.3 7.8 0.00 0.00 0.00 40 1011.4
20260504160334 65 189 4.3 7.8 0.00 0.00 0.00 40 1011.4
20260504160232 65 189 4.3 7.8 0.00 0.00 0.00 38 1011.5
20260504160123 65 189 4.3 7.8 0.00 0.00 0.00 37 1011.4
20260504151123 63 189 3.5 7.8 0.00 0.00 0.00 41 1011.9
20260504151106 63 190 3.5 7.8 0.00 0.00 0.00 43 1012.0
20260504151005 63 189 3.5 7.8 0.00 0.00 0.00 42 1011.8
20260504150907 63 189 3.5 7.8 0.00 0.00 0.00 42 1011.8
20260504150806 63 189 3.5 7.0 0.00 0.00 0.00 41 1011.9
20260504150703 63 190 3.5 7.0 0.00 0.00 0.00 44 1011.9
20260504150623 63 190 3.5 7.0 0.00 0.00 0.00 44 1011.9
20260504150604 63 189 3.5 7.0 0.00 0.00 0.00 44 1012.0
20260504150503 63 189 3.5 7.0 0.00 0.00 0.00 45 1011.9
20260504150401 63 189 3.5 10.4 0.00 0.00 0.00 45 1012.0
20260504150302 63 189 3.5 10.4 0.00 0.00 0.00 45 1012.0
20260504150158 63 190 3.5 10.4 0.00 0.00 0.00 44 1012.0
20260504150123 63 189 3.5 10.4 0.00 0.00 0.00 44 1012.0
20260504141320 62 190 3.5 6.1 0.00 0.00 0.00 45 1012.3
20260504141237 62 189 3.5 6.1 0.00 0.00 0.00 43 1012.3
20260504141119 62 190 3.5 8.7 0.00 0.00 0.00 43 1012.3
20260504141018 62 190 3.5 8.7 0.00 0.00 0.00 43 1012.2
20260504140918 62 190 3.5 8.7 0.00 0.00 0.00 43 1012.3
20260504140816 62 189 2.6 8.7 0.00 0.00 0.00 43 1012.3
20260504140716 62 189 2.6 8.7 0.00 0.00 0.00 43 1012.3
20260504140620 62 190 2.6 8.7 0.00 0.00 0.00 43 1012.3
20260504140615 62 189 2.6 8.7 0.00 0.00 0.00 43 1012.3
20260504140514 62 189 2.6 8.7 0.00 0.00 0.00 43 1012.3
20260504140413 62 189 2.6 8.7 0.00 0.00 0.00 42 1012.2
20260504140314 62 189 2.6 8.7 0.00 0.00 0.00 42 1012.3
20260504140211 62 189 2.6 8.7 0.00 0.00 0.00 42 1012.3
20260504140120 62 189 2.6 7.8 0.00 0.00 0.00 44 1012.2
20260504140111 62 190 2.6 7.8 0.00 0.00 0.00 44 1012.2
20260504130735 59 189 2.6 4.3 0.00 0.00 0.00 48 1012.8
20260504130634 59 189 2.6 4.3 0.00 0.00 0.00 49 1012.8
20260504130614 59 190 2.6 4.3 0.00 0.00 0.00 49 1012.8
20260504130533 59 189 2.6 4.3 0.00 0.00 0.00 50 1012.8
20260504130433 59 189 2.6 4.3 0.00 0.00 0.00 50 1012.8
20260504130331 59 190 2.6 4.3 0.00 0.00 0.00 49 1012.8
20260504130231 59 190 2.6 4.3 0.00 0.00 0.00 49 1012.8
20260504130132 59 189 2.6 4.3 0.00 0.00 0.00 49 1012.9
20260504130114 59 190 2.6 4.3 0.00 0.00 0.00 49 1012.9
20260504120250 56 189 2.6 6.1 0.00 0.00 0.00 52 1012.8
20260504120150 56 190 2.6 6.1 0.00 0.00 0.00 52 1012.8
20260504120109 56 189 2.6 5.2 0.00 0.00 0.00 53 1012.8
20260504110712 53 189 1.7 7.0 0.00 0.00 0.00 54 1012.8
20260504110516 53 190 1.7 7.0 0.00 0.00 0.00 54 1012.9
20260504110415 53 189 1.7 7.0 0.00 0.00 0.00 54 1012.8
20260504110315 53 190 1.7 7.0 0.00 0.00 0.00 56 1012.8
20260504110213 53 189 1.7 7.0 0.00 0.00 0.00 56 1012.8
20260504110105 53 190 1.7 4.3 0.00 0.00 0.00 56 1012.8
20260504100508 0 0.0 0.0 0.00 0.00 0.00 1012.6
20260504100407 0 0.0 0.0 0.00 0.00 0.00 1012.5
20260504100308 0 0.0 0.0 0.00 0.00 0.00 1012.5
20260504100259 0 0.0 0.0 0.00 0.00 0.00 1012.5
20260504100204 0 0.0 0.0 0.00 0.00 0.00 1012.5
20260504100104 0 0.0 0.0 0.00 0.00 0.00 1012.5
20260504090105 0 0.0 0.0 0.00 0.00 0.00 1012.3
20260504082004 0 0.0 0.0 0.00 0.00 0.00 1012.1
20260504081917 0 0.0 0.0 0.00 0.00 0.00 1012.1
20260504081748 0 0.0 0.0 0.00 0.00 0.00 1012.1
20260504081602 0 0.0 0.0 0.00 0.00 0.00 1012.1
20260504081458 0 0.0 0.0 0.00 0.00 0.00 1012.1
20260504081415 0 0.0 0.0 0.00 0.00 0.00 1012.1
20260504081306 0 0.0 0.0 0.00 0.00 0.00 1012.0
20260504081210 0 0.0 0.0 0.00 0.00 0.00 1012.1
20260504081110 0 0.0 0.0 0.00 0.00 0.00 1012.0
20260504081000 0 0.0 0.0 0.00 0.00 0.00 1012.1
20260504080911 0 0.0 0.0 0.00 0.00 0.00 1012.1
20260504080711 0 0.0 0.0 0.00 0.00 0.00 1012.0
20260504080606 0 0.0 0.0 0.00 0.00 0.00 1012.1
20260504080503 0 0.0 0.0 0.00 0.00 0.00 1012.0
20260504080404 0 0.0 0.0 0.00 0.00 0.00 1012.0
20260504080302 0 0.0 0.0 0.00 0.00 0.00 1012.0
20260504080236 0 0.0 0.0 0.00 0.00 0.00 1012.0
20260504080202 0 0.0 0.0 0.00 0.00 0.00 1012.0
20260504070348 0 0.0 0.0 0.00 0.00 0.00 1011.5
20260504070209 0 0.0 0.0 0.00 0.00 0.00 1011.5
20260504070134 0 0.0 0.0 0.00 0.00 0.00 1011.5
20260504070129 0 0.0 0.0 0.00 0.00 0.00 1011.5
20260504060157 49 190 0.9 6.1 0.00 0.00 0.00 62 1011.4
20260504050728 48 189 0.9 3.5 0.00 0.00 0.00 56 1011.4
20260504050628 48 190 0.9 3.5 0.00 0.00 0.00 54 1011.4
20260504050527 48 190 0.9 3.5 0.00 0.00 0.00 54 1011.3
20260504050504 48 190 0.9 3.5 0.00 0.00 0.00 54 1011.4
20260504050427 48 190 0.9 3.5 0.00 0.00 0.00 54 1011.4
20260504050327 49 190 0.9 3.5 0.00 0.00 0.00 54 1011.4
20260504050227 49 190 0.9 3.5 0.00 0.00 0.00 54 1011.4
20260504050129 49 190 0.9 3.5 0.00 0.00 0.00 54 1011.4
20260504050008 49 190 0.9 1.7 0.00 0.00 0.00 50 1011.4
20260504050004 49 189 0.9 3.5 0.00 0.00 0.00 53 1011.5
20260504045929 49 189 0.9 3.5 0.00 0.00 0.00 52 1011.5
20260504045827 49 189 0.9 2.6 0.00 0.00 0.00 52 1011.4
20260504045728 49 190 0.9 2.6 0.00 0.00 0.00 52 1011.5
20260504045628 49 190 0.9 2.6 0.00 0.00 0.00 52 1011.4
20260504045614 49 189 0.9 2.6 0.00 0.00 0.00 51 1011.4
20260504045502 49 190 0.9 2.6 0.00 0.00 0.00 51 1011.4
20260504045426 49 190 0.9 2.6 0.00 0.00 0.00 51 1011.4
20260504045326 49 190 0.9 2.6 0.00 0.00 0.00 51 1011.4
20260504045227 49 190 0.9 2.6 0.00 0.00 0.00 51 1011.5
20260504045126 49 190 0.9 1.7 0.00 0.00 0.00 51 1011.4
20260504045109 49 190 0.9 1.7 0.00 0.00 0.00 50 1011.4
20260504044926 49 190 0.9 1.7 0.00 0.00 0.00 50 1011.4
20260504044825 49 190 0.9 1.7 0.00 0.00 0.00 51 1011.4
20260504044725 49 190 0.0 1.7 0.00 0.00 0.00 50 1011.5
20260504044626 49 190 0.0 1.7 0.00 0.00 0.00 51 1011.4
20260504044526 49 190 0.9 1.7 0.00 0.00 0.00 50 1011.4
20260504044502 49 189 0.9 1.7 0.00 0.00 0.00 50 1011.5
20260504044426 49 190 0.9 1.7 0.00 0.00 0.00 50 1011.5
20260504044325 49 189 0.9 1.7 0.00 0.00 0.00 50 1011.4
20260504044226 49 190 0.9 1.7 0.00 0.00 0.00 50 1011.4
20260504044125 49 190 0.9 1.7 0.00 0.00 0.00 51 1011.4
20260504044024 49 189 0.9 1.7 0.00 0.00 0.00 51 1011.4
20260504044002 49 190 0.9 1.7 0.00 0.00 0.00 51 1011.4
20260504043923 49 190 0.9 1.7 0.00 0.00 0.00 50 1011.4
20260504043824 49 190 0.9 1.7 0.00 0.00 0.00 51 1011.5
20260504043724 49 190 0.9 1.7 0.00 0.00 0.00 51 1011.4
20260504043624 49 190 0.9 1.7 0.00 0.00 0.00 51 1011.4
20260504043503 49 190 0.9 1.7 0.00 0.00 0.00 51 1011.5
20260504043424 49 190 0.9 1.7 0.00 0.00 0.00 51 1011.5
20260504043324 49 189 0.9 1.7 0.00 0.00 0.00 51 1011.5
20260504043224 49 190 0.9 1.7 0.00 0.00 0.00 51 1011.5
20260504043125 49 190 0.9 1.7 0.00 0.00 0.00 51 1011.4
20260504043024 49 189 0.9 2.6 0.00 0.00 0.00 51 1011.5
20260504043003 49 190 0.9 2.6 0.00 0.00 0.00 51 1011.5
20260504042925 49 189 0.9 2.6 0.00 0.00 0.00 51 1011.5
20260504042822 49 190 0.0 2.6 0.00 0.00 0.00 51 1011.5
20260504042721 49 190 0.0 2.6 0.00 0.00 0.00 51 1011.4
20260504042622 49 189 0.0 2.6 0.00 0.00 0.00 51 1011.4
20260504042523 49 189 0.0 2.6 0.00 0.00 0.00 51 1011.4
20260504042501 49 189 0.0 2.6 0.00 0.00 0.00 51 1011.5
20260504042421 49 190 0.0 2.6 0.00 0.00 0.00 51 1011.5
20260504042321 49 190 0.0 2.6 0.00 0.00 0.00 51 1011.5
20260504042222 49 189 0.0 2.6 0.00 0.00 0.00 51 1011.5
20260504042122 49 190 0.0 2.6 0.00 0.00 0.00 51 1011.4
20260504042023 49 189 0.0 2.6 0.00 0.00 0.00 51 1011.4
20260504041959 49 189 0.0 2.6 0.00 0.00 0.00 51 1011.5
20260504041923 49 190 0.0 2.6 0.00 0.00 0.00 50 1011.5
20260504041823 49 190 0.0 2.6 0.00 0.00 0.00 50 1011.4
20260504041720 49 190 0.0 2.6 0.00 0.00 0.00 50 1011.4
20260504041619 49 190 0.9 2.6 0.00 0.00 0.00 50 1011.4
20260504041521 49 190 0.9 2.6 0.00 0.00 0.00 50 1011.5
20260504041501 49 190 0.9 2.6 0.00 0.00 0.00 50 1011.4
20260504041421 49 190 0.9 2.6 0.00 0.00 0.00 50 1011.4
20260504041321 49 189 0.9 2.6 0.00 0.00 0.00 49 1011.4
20260504041220 49 189 0.9 2.6 0.00 0.00 0.00 49 1011.4
20260504041121 49 190 0.9 2.6 0.00 0.00 0.00 49 1011.4
20260504041021 49 189 0.9 2.6 0.00 0.00 0.00 49 1011.4
20260504041000 49 190 0.9 2.6 0.00 0.00 0.00 49 1011.4
20260504040920 49 189 0.9 2.6 0.00 0.00 0.00 49 1011.4
20260504040821 49 190 0.9 2.6 0.00 0.00 0.00 48 1011.4
20260504040721 49 189 0.9 2.6 0.00 0.00 0.00 48 1011.4
20260504040620 49 189 0.9 2.6 0.00 0.00 0.00 48 1011.4
20260504040521 49 189 0.9 2.6 0.00 0.00 0.00 48 1011.4
20260504040501 49 190 0.9 2.6 0.00 0.00 0.00 48 1011.4
20260504040419 50 190 0.9 2.6 0.00 0.00 0.00 48 1011.4
20260504040321 50 189 0.9 2.6 0.00 0.00 0.00 48 1011.4
20260504040220 50 190 0.9 2.6 0.00 0.00 0.00 47 1011.4
20260504040119 50 190 0.9 2.6 0.00 0.00 0.00 46 1011.4
20260504040019 50 190 0.9 2.6 0.00 0.00 0.00 46 1011.3
20260504035959 50 190 0.9 2.6 0.00 0.00 0.00 46 1011.3
20260504035921 51 189 0.9 2.6 0.00 0.00 0.00 46 1011.3
20260504035819 51 190 0.9 2.6 0.00 0.00 0.00 46 1011.3
20260504035721 51 189 0.9 2.6 0.00 0.00 0.00 45 1011.2
20260504035621 51 189 0.0 2.6 0.00 0.00 0.00 45 1011.3
20260504035520 52 190 0.0 2.6 0.00 0.00 0.00 45 1011.3
20260504035504 52 190 0.0 2.6 0.00 0.00 0.00 45 1011.3
20260504035459 52 190 0.0 2.6 0.00 0.00 0.00 42 1011.1
20260504035419 52 190 0.0 0.9 0.00 0.00 0.00 44 1011.3
20260504035320 52 189 0.0 0.9 0.00 0.00 0.00 44 1011.2
20260504035221 52 189 0.0 0.9 0.00 0.00 0.00 43 1011.2
20260504035121 52 190 0.0 0.9 0.00 0.00 0.00 42 1011.2
20260504035106 52 190 0.0 0.9 0.00 0.00 0.00 42 1011.2
20260504034918 52 189 0.0 2.6 0.00 0.00 0.00 42 1011.1
20260504034818 52 189 0.0 2.6 0.00 0.00 0.00 42 1011.1
20260504034718 52 190 0.0 2.6 0.00 0.00 0.00 42 1011.1
20260504034618 52 190 0.9 2.6 0.00 0.00 0.00 42 1011.1
20260504034517 52 190 0.9 2.6 0.00 0.00 0.00 42 1011.1
20260504034457 52 189 0.9 2.6 0.00 0.00 0.00 42 1011.0
20260504034419 52 190 0.9 2.6 0.00 0.00 0.00 42 1011.0
20260504034319 52 190 0.9 2.6 0.00 0.00 0.00 42 1011.0
20260504034218 52 190 0.9 2.6 0.00 0.00 0.00 42 1011.0
20260504034118 52 190 0.9 2.6 0.00 0.00 0.00 42 1011.0
20260504034017 52 189 0.9 2.6 0.00 0.00 0.00 42 1011.0
20260504033958 52 190 0.9 1.7 0.00 0.00 0.00 43 1011.0
20260504033918 52 189 0.9 1.7 0.00 0.00 0.00 43 1011.0
20260504033816 52 190 0.9 1.7 0.00 0.00 0.00 43 1011.0
20260504033715 52 190 0.9 1.7 0.00 0.00 0.00 43 1011.0
20260504033616 52 190 0.0 1.7 0.00 0.00 0.00 43 1011.0
20260504033516 51 189 0.0 1.7 0.00 0.00 0.00 43 1011.0
20260504033457 51 190 0.0 1.7 0.00 0.00 0.00 43 1011.0
20260504033417 51 190 0.0 1.7 0.00 0.00 0.00 43 1011.0
20260504033316 51 189 0.0 1.7 0.00 0.00 0.00 44 1011.0
20260504033216 51 190 0.0 1.7 0.00 0.00 0.00 44 1011.0
20260504033117 51 190 0.0 1.7 0.00 0.00 0.00 44 1011.1
20260504033016 51 190 0.0 1.7 0.00 0.00 0.00 44 1011.0
20260504032955 51 190 0.0 1.7 0.00 0.00 0.00 44 1011.1
20260504032916 51 190 0.0 1.7 0.00 0.00 0.00 44 1011.1
20260504032817 51 190 0.0 1.7 0.00 0.00 0.00 45 1011.0
20260504032716 51 190 0.0 1.7 0.00 0.00 0.00 45 1011.1
20260504032616 51 190 0.0 1.7 0.00 0.00 0.00 45 1011.0
20260504032516 51 189 0.0 1.7 0.00 0.00 0.00 46 1011.1
20260504032457 51 190 0.0 1.7 0.00 0.00 0.00 46 1011.1
20260504032415 51 190 0.0 1.7 0.00 0.00 0.00 46 1011.1
20260504032316 51 190 0.0 1.7 0.00 0.00 0.00 46 1011.1
20260504032216 51 189 0.0 1.7 0.00 0.00 0.00 46 1011.1
20260504032116 51 190 0.0 1.7 0.00 0.00 0.00 47 1011.1
20260504032015 51 190 0.0 1.7 0.00 0.00 0.00 47 1011.2
20260504031956 51 189 0.0 1.7 0.00 0.00 0.00 47 1011.2
20260504031916 51 190 0.0 1.7 0.00 0.00 0.00 47 1011.2
20260504031817 51 190 0.0 1.7 0.00 0.00 0.00 48 1011.1
20260504031716 51 190 0.0 1.7 0.00 0.00 0.00 48 1011.1
20260504031617 51 190 0.0 1.7 0.00 0.00 0.00 48 1011.1
20260504031516 51 190 0.0 1.7 0.00 0.00 0.00 48 1011.1
20260504031501 51 189 0.0 3.5 0.00 0.00 0.00 48 1011.2
20260504031456 51 190 0.0 1.7 0.00 0.00 0.00 48 1011.1
20260504031417 51 190 0.0 1.7 0.00 0.00 0.00 48 1011.1
20260504031315 51 189 0.0 1.7 0.00 0.00 0.00 48 1011.1
20260504031216 51 190 0.0 1.7 0.00 0.00 0.00 48 1011.1
20260504031118 51 190 0.0 1.7 0.00 0.00 0.00 48 1011.1
20260504031104 51 190 0.0 2.6 0.00 0.00 0.00 48 1011.1
20260504030916 51 190 0.0 3.5 0.00 0.00 0.00 48 1011.2
20260504030816 51 190 0.0 3.5 0.00 0.00 0.00 48 1011.2
20260504030715 51 190 0.0 3.5 0.00 0.00 0.00 48 1011.1
20260504030615 51 189 0.0 3.5 0.00 0.00 0.00 48 1011.1
20260504030516 51 189 0.0 3.5 0.00 0.00 0.00 49 1011.1
20260504030457 51 190 0.0 3.5 0.00 0.00 0.00 49 1011.2
20260504030417 51 190 0.0 3.5 0.00 0.00 0.00 49 1011.2
20260504030316 51 189 0.0 3.5 0.00 0.00 0.00 49 1011.1
20260504030217 51 189 0.0 3.5 0.00 0.00 0.00 49 1011.1
20260504030115 51 189 0.0 3.5 0.00 0.00 0.00 50 1011.1
20260504030015 51 190 0.0 3.5 0.00 0.00 0.00 50 1011.1
20260504025956 51 190 0.0 1.7 0.00 0.00 0.00 50 1011.1
20260504025917 51 190 0.0 1.7 0.00 0.00 0.00 50 1011.1
20260504025817 51 190 0.0 1.7 0.00 0.00 0.00 50 1011.1
20260504025717 51 190 0.0 1.7 0.00 0.00 0.00 50 1011.1
20260504025617 50 190 0.0 1.7 0.00 0.00 0.00 50 1011.1
20260504025516 50 189 0.0 1.7 0.00 0.00 0.00 50 1011.0
20260504025455 50 189 0.0 1.7 0.00 0.00 0.00 50 1011.0
20260504025417 50 190 0.0 1.7 0.00 0.00 0.00 50 1011.0
20260504025316 50 189 0.0 1.7 0.00 0.00 0.00 50 1011.0
20260504025217 50 190 0.0 1.7 0.00 0.00 0.00 50 1011.0
20260504025116 50 190 0.0 0.9 0.00 0.00 0.00 50 1011.0
20260504025017 50 189 0.0 0.9 0.00 0.00 0.00 50 1011.0
20260504024955 50 190 0.0 0.9 0.00 0.00 0.00 50 1011.1
20260504024916 50 189 0.0 0.9 0.00 0.00 0.00 50 1011.1
20260504024816 50 190 0.0 1.7 0.00 0.00 0.00 49 1011.1
20260504024717 50 190 0.0 1.7 0.00 0.00 0.00 49 1011.1
20260504024616 50 190 0.0 1.7 0.00 0.00 0.00 49 1011.0
20260504024517 50 190 0.0 1.7 0.00 0.00 0.00 49 1011.1
20260504024456 50 190 0.0 1.7 0.00 0.00 0.00 49 1011.0
20260504024415 50 189 0.0 1.7 0.00 0.00 0.00 49 1011.0
20260504024317 50 190 0.0 1.7 0.00 0.00 0.00 49 1011.0
20260504024216 50 189 0.0 1.7 0.00 0.00 0.00 49 1011.0
20260504024116 50 190 0.0 1.7 0.00 0.00 0.00 50 1011.0
20260504024017 50 190 0.0 1.7 0.00 0.00 0.00 50 1011.0
20260504023956 50 189 0.0 1.7 0.00 0.00 0.00 50 1011.0
20260504023915 50 190 0.0 1.7 0.00 0.00 0.00 50 1011.0
20260504023816 50 189 0.0 1.7 0.00 0.00 0.00 50 1011.0
20260504023715 50 189 0.0 1.7 0.00 0.00 0.00 50 1011.0
20260504023615 50 190 0.0 1.7 0.00 0.00 0.00 50 1011.1
20260504023517 50 190 0.0 1.7 0.00 0.00 0.00 50 1011.0
20260504023457 50 190 0.0 1.7 0.00 0.00 0.00 50 1011.1
20260504023416 50 189 0.0 1.7 0.00 0.00 0.00 50 1011.1
20260504023315 50 190 0.0 1.7 0.00 0.00 0.00 50 1011.0
20260504023217 50 190 0.0 1.7 0.00 0.00 0.00 50 1011.0
20260504023115 50 190 0.0 1.7 0.00 0.00 0.00 50 1011.0
20260504023016 50 190 0.0 1.7 0.00 0.00 0.00 50 1011.0
20260504022956 50 190 0.0 1.7 0.00 0.00 0.00 50 1011.0
20260504022916 50 190 0.0 1.7 0.00 0.00 0.00 51 1011.0
20260504022816 49 190 0.0 1.7 0.00 0.00 0.00 51 1011.1
20260504022715 49 190 0.0 1.7 0.00 0.00 0.00 51 1011.0
20260504022615 49 189 0.0 1.7 0.00 0.00 0.00 51 1011.0
20260504022515 49 190 0.0 1.7 0.00 0.00 0.00 52 1011.0
20260504022457 49 190 0.0 1.7 0.00 0.00 0.00 52 1011.0
20260504022417 49 190 0.0 1.7 0.00 0.00 0.00 52 1011.0
20260504022315 49 190 0.0 1.7 0.00 0.00 0.00 52 1011.0
20260504022216 49 190 0.0 1.7 0.00 0.00 0.00 52 1011.0
20260504022115 49 190 0.0 1.7 0.00 0.00 0.00 52 1011.0
20260504022016 49 189 0.0 1.7 0.00 0.00 0.00 52 1011.0
20260504021957 49 190 0.0 1.7 0.00 0.00 0.00 52 1011.0
20260504021916 49 189 0.0 1.7 0.00 0.00 0.00 52 1011.0
20260504021816 49 190 0.0 1.7 0.00 0.00 0.00 52 1011.0
20260504021716 49 190 0.0 0.9 0.00 0.00 0.00 52 1011.1
20260504021616 49 189 0.0 0.9 0.00 0.00 0.00 52 1011.1
20260504021517 49 189 0.0 0.9 0.00 0.00 0.00 52 1011.1
20260504021500 49 190 0.0 1.7 0.00 0.00 0.00 53 1011.0
20260504021456 49 190 0.0 0.9 0.00 0.00 0.00 52 1011.0
20260504021417 49 190 0.0 1.7 0.00 0.00 0.00 53 1011.0
20260504021316 49 190 0.0 1.7 0.00 0.00 0.00 53 1011.0
20260504021216 49 190 0.0 1.7 0.00 0.00 0.00 53 1011.0
20260504021117 49 190 0.0 1.7 0.00 0.00 0.00 53 1011.1
20260504021103 49 190 0.0 1.7 0.00 0.00 0.00 53 1011.0
20260504020917 49 190 0.0 1.7 0.00 0.00 0.00 53 1011.0
20260504020816 49 189 0.0 1.7 0.00 0.00 0.00 53 1011.0
20260504020716 49 189 0.0 1.7 0.00 0.00 0.00 53 1011.0
20260504020617 49 190 0.0 1.7 0.00 0.00 0.00 53 1011.0
20260504020516 49 190 0.0 1.7 0.00 0.00 0.00 53 1011.0
20260504020457 49 190 0.0 1.7 0.00 0.00 0.00 53 1011.0
20260504020417 49 189 0.0 1.7 0.00 0.00 0.00 53 1011.0
20260504020317 49 189 0.0 1.7 0.00 0.00 0.00 53 1011.0
20260504020216 49 190 0.0 1.7 0.00 0.00 0.00 53 1011.0
20260504020117 49 190 0.0 1.7 0.00 0.00 0.00 53 1011.0
20260504020016 49 189 0.0 1.7 0.00 0.00 0.00 53 1011.1
20260504015956 49 189 0.0 1.7 0.00 0.00 0.00 53 1011.0
20260504015916 49 190 0.0 1.7 0.00 0.00 0.00 53 1011.0
20260504015817 49 190 0.0 1.7 0.00 0.00 0.00 53 1011.0
20260504015717 49 190 0.0 1.7 0.00 0.00 0.00 53 1011.0
20260504015616 49 190 0.0 1.7 0.00 0.00 0.00 53 1011.0
20260504015515 49 190 0.0 1.7 0.00 0.00 0.00 53 1011.0
20260504015457 49 190 0.0 1.7 0.00 0.00 0.00 53 1011.0
20260504015415 49 190 0.0 1.7 0.00 0.00 0.00 54 1011.0
20260504015316 49 190 0.0 1.7 0.00 0.00 0.00 54 1011.0
20260504015216 49 189 0.0 1.7 0.00 0.00 0.00 54 1011.0
20260504015116 49 189 0.0 1.7 0.00 0.00 0.00 54 1010.9
20260504015015 49 190 0.0 1.7 0.00 0.00 0.00 54 1010.9
20260504014956 49 190 0.0 1.7 0.00 0.00 0.00 54 1011.0
20260504014917 49 190 0.0 1.7 0.00 0.00 0.00 54 1011.0
20260504014816 49 189 0.0 1.7 0.00 0.00 0.00 53 1010.9
20260504014717 49 190 0.0 1.7 0.00 0.00 0.00 53 1010.9
20260504014616 49 189 0.0 0.9 0.00 0.00 0.00 53 1010.9
20260504014517 49 190 0.0 0.9 0.00 0.00 0.00 53 1010.8
20260504014455 49 190 0.0 0.9 0.00 0.00 0.00 53 1010.9
20260504014416 49 190 0.0 0.9 0.00 0.00 0.00 53 1010.9
20260504014317 49 190 0.0 0.9 0.00 0.00 0.00 53 1010.9
20260504014216 49 189 0.0 0.9 0.00 0.00 0.00 53 1010.9
20260504014117 49 190 0.0 0.9 0.00 0.00 0.00 53 1010.9
20260504014016 49 190 0.0 0.9 0.00 0.00 0.00 53 1010.9
20260504013955 49 189 0.0 0.9 0.00 0.00 0.00 53 1010.9
20260504013915 49 190 0.0 0.9 0.00 0.00 0.00 53 1010.9
20260504013816 49 190 0.0 0.9 0.00 0.00 0.00 54 1010.9
20260504013715 49 190 0.0 0.9 0.00 0.00 0.00 54 1010.9
20260504013615 49 190 0.0 0.9 0.00 0.00 0.00 55 1010.9
20260504013516 49 190 0.0 0.9 0.00 0.00 0.00 55 1010.9
20260504013456 49 190 0.0 0.9 0.00 0.00 0.00 55 1010.8
20260504013415 49 189 0.0 0.9 0.00 0.00 0.00 55 1010.8
20260504013317 49 190 0.0 0.9 0.00 0.00 0.00 55 1010.8
20260504013215 49 189 0.0 0.9 0.00 0.00 0.00 55 1010.8
20260504013115 49 189 0.0 0.9 0.00 0.00 0.00 55 1010.7
20260504013016 49 190 0.0 1.7 0.00 0.00 0.00 55 1010.7
20260504013001 49 190 0.0 1.7 0.00 0.00 0.00 56 1010.7
20260504012957 49 189 0.0 1.7 0.00 0.00 0.00 55 1010.7
20260504012916 49 190 0.0 1.7 0.00 0.00 0.00 56 1010.7
20260504012816 49 189 0.0 1.7 0.00 0.00 0.00 56 1010.7
20260504012717 49 189 0.0 1.7 0.00 0.00 0.00 56 1010.7
20260504012618 49 190 0.0 1.7 0.00 0.00 0.00 56 1010.7
20260504012603 49 190 0.0 1.7 0.00 0.00 0.00 56 1010.7
20260504012416 49 190 0.0 1.7 0.00 0.00 0.00 56 1010.7
20260504012316 49 190 0.0 1.7 0.00 0.00 0.00 56 1010.7
20260504012215 49 189 0.0 1.7 0.00 0.00 0.00 56 1010.7
20260504012117 49 189 0.0 1.7 0.00 0.00 0.00 56 1010.7
20260504012015 49 190 0.0 0.9 0.00 0.00 0.00 56 1010.6
20260504011956 49 189 0.0 0.9 0.00 0.00 0.00 56 1010.6
20260504011916 49 190 0.0 0.9 0.00 0.00 0.00 56 1010.6
20260504011816 49 190 0.0 0.9 0.00 0.00 0.00 57 1010.6
20260504011716 49 190 0.0 0.9 0.00 0.00 0.00 57 1010.6
20260504011616 49 190 0.0 0.9 0.00 0.00 0.00 57 1010.6
20260504011516 49 190 0.0 0.9 0.00 0.00 0.00 57 1010.7
20260504011500 49 190 0.0 0.9 0.00 0.00 0.00 57 1010.5
20260504011455 49 190 0.0 0.9 0.00 0.00 0.00 57 1010.6
20260504011415 49 189 0.0 0.9 0.00 0.00 0.00 57 1010.6
20260504011316 49 190 0.0 0.9 0.00 0.00 0.00 57 1010.6
20260504011216 49 190 0.0 0.9 0.00 0.00 0.00 57 1010.6
20260504011117 49 190 0.0 0.9 0.00 0.00 0.00 57 1010.5
20260504011102 49 189 0.0 0.9 0.00 0.00 0.00 57 1010.5
20260504010915 49 189 0.0 0.9 0.00 0.00 0.00 57 1010.5
20260504010817 49 190 0.0 0.9 0.00 0.00 0.00 57 1010.5
20260504010717 49 190 0.0 0.9 0.00 0.00 0.00 57 1010.5
20260504010616 49 190 0.0 0.9 0.00 0.00 0.00 57 1010.5
20260504010517 49 189 0.0 0.9 0.00 0.00 0.00 57 1010.4
20260504010456 49 190 0.0 0.9 0.00 0.00 0.00 57 1010.4
20260504010416 49 189 0.0 0.9 0.00 0.00 0.00 57 1010.4
20260504010315 49 189 0.0 0.9 0.00 0.00 0.00 57 1010.4
20260504010216 49 190 0.0 0.9 0.00 0.00 0.00 57 1010.4
20260504010115 49 189 0.0 0.9 0.00 0.00 0.00 57 1010.4
20260504010015 49 189 0.0 0.9 0.00 0.00 0.00 57 1010.4
20260504005956 49 190 0.0 0.9 0.00 0.00 0.00 57 1010.3
20260504005916 49 189 0.0 0.9 0.00 0.00 0.00 57 1010.3
20260504005815 49 190 0.0 0.9 0.00 0.00 0.00 57 1010.3
20260504005715 49 190 0.0 0.0 0.00 0.00 0.00 57 1010.3
20260504005615 49 190 0.0 0.0 0.00 0.00 0.00 57 1010.3
20260504005516 49 190 0.0 0.0 0.00 0.00 0.00 58 1010.3
20260504005501 48 190 0.0 0.0 0.00 0.00 0.00 61 1010.3
20260504005456 49 189 0.0 0.0 0.00 0.00 0.00 58 1010.3
20260504005415 49 189 0.0 0.0 0.00 0.00 0.00 58 1010.3
20260504005316 49 189 0.0 0.0 0.00 0.00 0.00 58 1010.1
20260504005217 49 190 0.0 0.0 0.00 0.00 0.00 58 1010.3
20260504005123 49 190 0.0 0.0 0.00 0.00 0.00 58 1010.3
20260504005108 49 190 0.0 0.0 0.00 0.00 0.00 59 1010.3
20260504004956 48 190 0.0 0.0 0.00 0.00 0.00 59 1010.3
20260504004916 48 190 0.0 0.0 0.00 0.00 0.00 59 1010.3
20260504004815 48 190 0.0 0.0 0.00 0.00 0.00 59 1010.3
20260504004716 48 189 0.0 0.0 0.00 0.00 0.00 60 1010.3
20260504004616 48 189 0.0 0.0 0.00 0.00 0.00 60 1010.3
20260504004604 48 190 0.0 0.0 0.00 0.00 0.00 61 1010.3
20260504004415 48 190 0.0 0.0 0.00 0.00 0.00 61 1010.3
20260504004316 48 189 0.0 0.0 0.00 0.00 0.00 61 1010.1
20260504004217 48 190 0.0 0.0 0.00 0.00 0.00 61 1010.1
20260504004116 48 189 0.0 0.0 0.00 0.00 0.00 61 1010.1
20260504004015 48 190 0.0 0.0 0.00 0.00 0.00 61 1010.1
20260504004001 48 189 0.0 0.9 0.00 0.00 0.00 62 1010.0
20260504003955 48 190 0.0 0.0 0.00 0.00 0.00 61 1010.1
20260504003916 48 189 0.0 0.9 0.00 0.00 0.00 61 1010.1
20260504003816 48 190 0.0 0.9 0.00 0.00 0.00 62 1010.1
20260504003716 48 189 0.0 0.9 0.00 0.00 0.00 62 1010.0
20260504003621 48 190 0.0 0.9 0.00 0.00 0.00 62 1010.1
20260504003603 48 189 0.0 0.9 0.00 0.00 0.00 62 1010.1
20260504003415 48 190 0.0 0.9 0.00 0.00 0.00 62 1010.0
20260504003316 48 189 0.0 0.9 0.00 0.00 0.00 62 1010.1
20260504003216 48 190 0.0 0.9 0.00 0.00 0.00 62 1010.0
20260504003116 48 189 0.0 1.7 0.00 0.00 0.00 62 1010.0
20260504003015 48 189 0.0 1.7 0.00 0.00 0.00 62 1010.0
20260504003000 48 190 0.0 1.7 0.00 0.00 0.00 62 1010.0
20260504002915 48 190 0.0 1.7 0.00 0.00 0.00 62 1010.0
20260504002815 48 190 0.0 1.7 0.00 0.00 0.00 62 1010.0
20260504002716 48 190 0.0 1.7 0.00 0.00 0.00 62 1010.0
20260504002616 48 189 0.0 1.7 0.00 0.00 0.00 63 1010.0
20260504002515 48 189 0.0 1.7 0.00 0.00 0.00 63 1009.9
20260504002502 49 190 0.0 0.0 0.00 0.00 0.00 61 1009.8
20260504002457 48 190 0.0 1.7 0.00 0.00 0.00 63 1009.9
20260504002417 48 189 0.0 1.7 0.00 0.00 0.00 63 1009.9
20260504002316 48 189 0.0 1.7 0.00 0.00 0.00 63 1009.9
20260504002216 48 190 0.0 1.7 0.00 0.00 0.00 63 1009.9
20260504002122 48 189 0.0 0.9 0.00 0.00 0.00 63 1009.9
20260504002108 48 190 0.0 0.0 0.00 0.00 0.00 62 1009.9
20260504001955 48 190 0.0 0.0 0.00 0.00 0.00 62 1009.8
20260504001916 48 190 0.0 0.0 0.00 0.00 0.00 62 1009.8
20260504001816 48 189 0.0 0.0 0.00 0.00 0.00 62 1009.7
20260504001715 48 190 0.0 0.0 0.00 0.00 0.00 62 1009.8
20260504001617 48 189 0.0 0.0 0.00 0.00 0.00 62 1009.8
20260504001603 49 189 0.0 0.0 0.00 0.00 0.00 62 1009.8
20260504001416 49 190 0.0 0.0 0.00 0.00 0.00 61 1009.8
20260504001316 49 190 0.0 0.0 0.00 0.00 0.00 61 1009.8
20260504001215 49 189 0.0 0.0 0.00 0.00 0.00 61 1009.7
20260504001116 49 190 0.0 0.0 0.00 0.00 0.00 61 1009.7
20260504001015 49 190 0.0 0.0 0.00 0.00 0.00 61 1009.7
20260504000955 49 190 0.0 0.0 0.00 0.00 0.00 61 1009.7
20260504000915 49 189 0.0 0.0 0.00 0.00 0.00 61 1009.7
20260504000815 49 189 0.0 0.0 0.00 0.00 0.00 61 1009.6
20260504000716 49 190 0.0 0.0 0.00 0.00 0.00 61 1009.6
20260504000616 49 190 0.0 0.0 0.00 0.00 0.00 61 1009.6
20260504000516 49 190 0.0 0.0 0.00 0.00 0.00 61 1009.6
20260504000455 49 190 0.0 0.0 0.00 0.00 0.00 62 1009.6
20260504000416 49 189 0.0 0.0 0.00 0.00 0.00 62 1009.6
20260504000316 49 189 0.0 0.0 0.00 0.00 0.00 62 1009.6
20260504000215 49 190 0.0 0.0 0.00 0.00 0.00 62 1009.6
20260504000115 49 189 0.0 0.0 0.00 0.00 0.00 62 1009.6
20260504000015 49 190 0.0 0.0 0.00 0.00 0.00 62 1009.6
20260503235957 49 190 0.0 0.0 0.00 0.00 0.00 62 1009.6
20260503235916 49 189 0.0 0.0 0.00 0.00 0.00 62 1009.6